Weather History for Idaho Falls, ID

Change the Weather History Date:

Wednesday, February 6, 2013

  Actual Average Record
Temperature  
Mean Temperature 21 °F 22 °F  
Max Temperature 32 °F 31 °F 60 °F (1963)
Min Temperature 10 °F 13 °F -25 °F (1989)
Degree Days  
Heating Degree Days 44 43  
Month to date heating degree days 228 262  
Since 1 July heating degree days 4612 4925  
Cooling Degree Days 0 0  
Month to date cooling degree days 0 0  
Year to date cooling degree days 0 0  
Moisture  
Dew Point 19 °F    
Average Humidity 82    
Maximum Humidity 92    
Minimum Humidity 72    
Precipitation  
Precipitation 0.00 in 0.02 in 0.20 in (1950)
Month to date precipitation 0.00 0.12  
Year to date precipitation 0.31 0.81  
Sea Level Pressure  
Sea Level Pressure 30.10 in    
Wind  
Wind Speed 5 mph (West)    
Max Wind Speed 13 mph    
Max Gust Speed 16 mph    
Visibility 6 miles    
Events Fog    
T = Trace of Precipitation, MM = Missing Value Source: NWS Daily Summary

Daily Weather History Graph

Daily Weather History Graph

Search for Another Location

Airport:

Trip Planner

Search our weather history database for the weather conditions in past years. The results will help you decide how hot, cold, wet, or windy it might be!

Date:

Astronomy

Feb. 06, 2013 Rise Set
Actual Time 7:38 AM MST 5:47 PM MST
Civil Twilight 7:08 AM MST 6:17 PM MST
Nautical Twilight 6:34 AM MST 6:51 PM MST
Astronomical Twilight 6:01 AM MST 7:24 PM MST
Moon 4:29 AM MST (2/6) 2:05 PM MST (2/6)
Length of Visible Light 11h 08m
Length of Day
10h 08m
Waning Crescent, 16% of the Moon is Illuminated
Feb 6
Waning Crescent
Feb 10
New
Feb 17
First Quarter
Feb 25
Full
Mar 4
Last Quarter

Hourly Weather History & Observations

Time (MST) Temp. Windchill Dew Point Humidity Pressure Visibility Wind Dir Wind Speed Gust Speed Precip Events Conditions
12:53 AM 23.0 °F - 19.0 °F 85% 30.00 in 8.0 mi Calm Calm - N/A   Clear
1:53 AM 18.0 °F - 14.0 °F 84% 30.01 in 6.0 mi Calm Calm - N/A   Clear
2:11 AM 19.4 °F 14.3 °F 17.6 °F 93% 29.92 in 1.5 mi WNW 3.5 mph - N/A   Partly Cloudy
2:22 AM 15.8 °F 6.1 °F 12.2 °F 86% 29.93 in 3.0 mi North 6.9 mph - N/A   Clear
2:53 AM 17.1 °F 8.7 °F 12.9 °F 84% 30.05 in 5.0 mi North 5.8 mph - N/A   Clear
3:53 AM 12.9 °F - 9.0 °F 84% 30.06 in 5.0 mi Calm Calm - N/A   Clear
4:11 AM 15.8 °F - 10.4 °F 79% 29.94 in 2.5 mi Calm Calm - N/A   Clear
4:21 AM 15.8 °F - 12.2 °F 86% 29.95 in 3.0 mi Calm Calm - N/A   Clear
4:53 AM 12.0 °F - 8.1 °F 84% 30.09 in 4.0 mi Calm Calm - N/A   Clear
5:03 AM 12.2 °F - 6.8 °F 79% 29.96 in 1.5 mi Calm Calm - N/A   Haze
5:08 AM 15.8 °F - 10.4 °F 79% 29.96 in 0.2 mi Calm Calm - N/A Fog Light Freezing Fog
5:19 AM 15.8 °F 7.2 °F 12.2 °F 86% 29.96 in 1.0 mi South 5.8 mph - N/A   Clear
5:50 AM 24.8 °F 14.0 °F 19.4 °F 80% 29.96 in 6.0 mi SSW 11.5 mph - N/A   Mostly Cloudy
5:53 AM 24.1 °F 13.7 °F 21.0 °F 88% 30.07 in 6.0 mi SSW 10.4 mph - N/A   Mostly Cloudy
6:01 AM 21.2 °F - 19.4 °F 93% 29.95 in 5.0 mi Calm Calm - N/A   Mostly Cloudy
6:38 AM 17.6 °F - 15.8 °F 93% 29.97 in 2.5 mi Calm Calm - N/A   Overcast
6:53 AM 18.0 °F 12.7 °F 15.1 °F 88% 30.11 in 2.5 mi ENE 3.5 mph - N/A   Overcast
7:01 AM 17.6 °F - 15.8 °F 93% - 3.0 mi Calm Calm - N/A   Overcast
7:08 AM 17.6 °F 10.7 °F 15.8 °F 93% - 2.5 mi North 4.6 mph - N/A Fog Shallow Fog
7:12 AM 17.6 °F 10.7 °F 15.8 °F 93% 30.00 in 2.0 mi North 4.6 mph - N/A   Overcast
7:23 AM 17.6 °F - 15.8 °F 93% 30.00 in 1.0 mi Calm Calm - N/A   Overcast
7:53 AM 18.0 °F - 16.0 °F 92% 30.13 in 1.0 mi Calm Calm - N/A   Overcast
8:29 AM 23.0 °F - 19.4 °F 86% 30.02 in 2.5 mi Calm Calm - N/A   Overcast
8:53 AM 25.0 °F - 23.0 °F 92% 30.14 in 2.5 mi Calm Calm - N/A   Overcast
9:17 AM 26.6 °F 17.5 °F 24.8 °F 93% 30.04 in 2.5 mi WSW 9.2 mph - N/A   Overcast
9:53 AM 27.0 °F 19.5 °F 25.0 °F 92% 30.17 in 2.5 mi WSW 6.9 mph - N/A   Overcast
10:53 AM 28.0 °F 19.3 °F 26.1 °F 92% 30.18 in 2.5 mi SW 9.2 mph - N/A   Overcast
11:53 AM 28.9 °F 21.1 °F 26.1 °F 89% 30.19 in 9.0 mi WSW 8.1 mph - N/A   Overcast
12:53 PM 30.0 °F 21.7 °F 25.0 °F 82% 30.18 in 10.0 mi WSW 9.2 mph - N/A   Overcast
1:53 PM 30.9 °F 21.7 °F 25.0 °F 79% 30.19 in 10.0 mi SSW 11.5 mph - N/A   Overcast
2:53 PM 30.9 °F 23.5 °F 25.0 °F 79% 30.20 in 10.0 mi SSW 8.1 mph - N/A   Overcast
3:40 PM 30.2 °F 21.3 °F 24.8 °F 80% 30.10 in 10.0 mi SW 10.4 mph - N/A   Overcast
3:53 PM 30.9 °F 27.5 °F 24.1 °F 76% 30.24 in 10.0 mi SW 3.5 mph - N/A   Overcast
4:53 PM 30.9 °F 27.5 °F 24.1 °F 76% 30.25 in 10.0 mi SW 3.5 mph - N/A   Overcast
5:53 PM 30.0 °F 25.2 °F 23.0 °F 75% 30.23 in 10.0 mi SW 4.6 mph - N/A   Overcast
6:53 PM 28.9 °F 22.8 °F 24.1 °F 82% 30.27 in 10.0 mi NE 5.8 mph - N/A   Overcast
7:53 PM 28.0 °F 22.8 °F 23.0 °F 81% 30.28 in 10.0 mi North 4.6 mph - N/A   Overcast
8:53 PM 28.0 °F - 24.1 °F 85% 30.27 in 10.0 mi Calm Calm - N/A   Mostly Cloudy
9:53 PM 26.1 °F 21.9 °F 21.9 °F 84% 30.27 in 10.0 mi North 3.5 mph - N/A   Overcast
10:53 PM 25.0 °F 19.3 °F 21.9 °F 88% 30.27 in 10.0 mi North 4.6 mph - N/A   Mostly Cloudy
11:21 PM 24.8 °F 19.1 °F 21.2 °F 86% 30.17 in 10.0 mi North 4.6 mph - N/A   Scattered Clouds
11:53 PM 24.1 °F 19.7 °F 19.9 °F 84% 30.28 in 10.0 mi North 3.5 mph - N/A   Clear